Powrót do katalogu

CZ-6A DEB

AktywnyPO
NORAD 60699·DEBRIS·🇨🇳 China

Wystrzelony Aug 6, 2024 z Taiyuan Satellite Launch Center

Loading…

Następne Przeloty (najbliższe 24 godziny)

TLE

ŚwieżeSource: Space-Track

Epoka: Sep 14, 2026, 08:58 UTC

1 60699U 24140DC  26257.37405655  .00000628  00000-0  29330-3 0  9994
2 60699  88.6996 238.0580 0064421 239.4395 120.0428 14.18050860108050

Śledź CZ-6A DEB w czasie rzeczywistym z AllMySat

Download on the App Store